[[{"header":{"parameterUnit":"m.s-1","parameterCategory":1,"la1":30.2991,"la2":30.254,"lo1":-89.0895,"lo2":-89.0444,"dy":0.0017,"dx":0.0017,"nx":28,"ny":28,"refTime":"2023-08-12T21:00:00:Z","depth":0,"parameterNumber":2,"parameterNumberName":"U-component_of_WINDS"},"data":[0,0,0,0,0,0,0,0,0,0,0,0,0,0,0,0,0,0,0,0,0,0,0,0,0,0,0,0,0,0,0,0,0,0,0,0,0,0,0,0,0,0,0,0,0,0,0,0,0,0,0,0,0,0,0,0,0,0,4.0212,4.0213,0,4.0306,4.0307,4.0308,4.0235,4.0231,4.0228,4.0225,4.0321,4.0327,4.0332,0,0,0,0,0,0,0,0,0,0,0,0,0,3.9967,3.9972,4.0212,4.0214,4.0215,4.0306,4.0307,4.0309,4.0235,4.0231,4.0227,4.0224,4.0319,4.0326,4.0333,0,0,0,0,0,0,0,0,0,0,0,0,0,4.0069,3.9974,4.0212,4.0189,4.0188,4.0306,4.0307,4.0309,4.0236,4.0231,4.0226,4.0222,4.0317,4.0325,4.0333,4.0479,0,0,4.0359,4.0362,0,0,0,0,0,0,0,0,4.0063,4.0078,4.0191,4.0191,4.019,4.0254,4.0256,4.0366,4.0237,4.0218,4.0225,4.022,4.0303,4.0312,4.034,4.0484,4.0488,4.0359,4.0364,4.0368,4.037,0,0,0,0,0,0,0,4.0056,4.0073,4.0249,4.0193,4.0192,4.0173,4.0182,4.0277,4.0286,4.0219,4.0214,4.0226,4.0301,4.0332,4.0342,4.0489,4.0359,4.0366,4.0372,4.0375,4.0754,4.0759,0,0,0,0,0,0,4.0051,4.0068,4.0246,4.0252,4.0113,4.0182,4.0192,4.0238,4.0284,4.0287,4.023,4.0222,4.032,4.0332,4.0345,4.0516,4.0368,4.0376,4.038,4.0749,4.0755,4.0761,0,0,0,0,0,0,4.0047,4.0068,4.0243,4.0159,4.018,4.0191,4.0243,4.0242,4.0273,4.0293,4.0294,4.026,4.0317,4.0333,4.0446,4.0518,4.0379,4.0387,4.0743,4.0751,4.0758,4.0861,0,0,0,0,0,0,4.004,4.0067,4.0123,4.0161,4.0184,4.0343,4.0248,4.0248,4.0287,4.0278,4.0321,4.0323,4.0315,4.0434,4.0454,4.0527,4.0393,4.0736,4.0746,4.0756,4.0851,4.0871,4.0888,0,0,0,0,0,4.0031,4.0149,4.0126,4.0148,4.0255,4.0347,4.0361,4.0348,4.0294,4.0349,4.0362,4.0322,4.0507,4.0446,4.0468,4.0545,4.0732,4.0744,4.0755,4.0843,4.0867,4.0888,0,0,0,0,0,0,4.0119,4.0153,4.0129,4.0262,4.0302,4.0335,4.0405,4.0375,4.0432,4.0421,4.0403,4.0413,4.0531,4.0549,4.048,4.0687,4.0611,4.0627,4.067,4.0694,4.0712,4.0704,4.04,0,0,0,0,0,4.0154,4.0227,4.0253,4.0368,4.0389,4.0394,4.0434,4.042,4.0461,4.0478,4.0499,4.054,4.0607,4.0652,4.0715,4.0854,4.0861,4.0918,4.0936,4.0951,4.0965,4.1037,4.1062,4.0799,4.0799,4.0798,0,0,4.0227,4.0255,4.0302,4.0386,4.0416,4.049,4.0409,4.0492,4.0547,4.0491,4.0597,4.0614,4.0659,4.0785,4.0841,4.0804,4.104,4.0966,4.0978,4.0984,4.1052,4.1077,4.1099,4.0807,4.0805,4.0804,0,0,4.0398,4.0427,4.0524,4.0556,4.0602,4.0604,4.0627,4.0664,4.0673,4.078,4.0738,4.0803,4.092,4.0953,4.0985,4.1166,4.113,4.1187,4.1284,4.1355,4.1375,4.1394,4.1456,4.1478,4.1201,4.1202,4.1202,0,4.0482,4.0594,4.0579,4.0664,4.0701,4.0654,4.0752,4.0783,4.0847,4.0873,4.0831,4.0975,4.1002,4.1133,4.1177,4.1205,4.123,4.1181,4.1374,4.1392,4.1409,4.1468,4.1491,4.1208,4.1207,4.1207,4.1206,0,4.0694,4.0772,4.0845,4.0908,4.0953,4.1045,4.1042,4.1091,4.1073,4.1079,4.1188,4.1218,4.1285,4.1316,4.13,4.1445,4.142,4.1376,4.1299,4.144,4.1495,4.1518,4.1217,4.1215,4.1213,4.1211,0,0,4.0923,4.0974,4.1001,4.1028,4.1074,4.1134,4.1222,4.1288,4.1328,4.1374,4.1446,4.1546,4.1505,4.1541,4.1529,4.1591,4.1729,4.1539,4.154,4.1571,4.1887,4.1918,4.1944,4.1707,4.1711,4.1715,4.1882,0,4.1093,4.1247,4.1235,4.138,4.145,4.1406,4.1483,4.1519,4.1527,4.1587,4.1596,4.1665,4.1607,4.1629,4.1689,4.17,4.1792,4.1688,4.1772,4.1775,4.176,4.1974,4.2007,4.2164,4.1904,4.1908,4.191,0,4.1313,4.1365,4.1517,4.155,4.1579,4.1649,4.1706,4.1765,4.1805,4.1806,4.1846,4.1822,4.191,4.1832,4.1952,4.1881,4.1915,4.1926,4.1932,4.1937,4.185,4.1983,4.2214,4.2237,4.1945,4.1942,4.1939,0,4.1461,4.1569,4.1673,4.1698,4.1741,4.179,4.181,4.1845,4.1884,4.1935,4.1959,4.202,4.2053,4.21,4.2092,4.2037,4.2213,4.2136,4.2215,4.2215,4.2253,4.225,4.2491,4.2279,4.2279,4.2278,4.2278,0,4.1651,4.1745,4.174,4.1804,4.1907,4.1892,4.1995,4.2009,4.204,4.2105,4.2071,4.2133,4.2121,4.2182,4.2177,4.2275,4.2291,4.2293,4.229,4.2295,4.2294,4.2315,4.2303,4.2284,4.2283,4.2282,4.2281,0,4.1833,4.1834,4.1944,4.1975,4.1985,4.2059,4.2085,4.2145,4.215,4.2232,4.2251,4.2258,4.2328,4.2326,4.2406,4.2402,4.2522,4.2508,4.2509,4.2505,4.2583,4.2575,4.2844,4.2877,4.2646,4.2648,4.265,0,4.1954,4.2025,4.2063,4.2103,4.2126,4.2193,4.2232,4.2221,4.2263,4.2312,4.2365,4.2432,4.2484,4.2598,4.261,4.267,4.2656,4.2746,4.2665,4.2666,4.2654,4.2649,4.2654,4.2761,4.2764,4.2766,4.2768,0,4.2166,4.2163,4.2221,4.2279,4.2327,4.2373,4.2414,4.245,4.2442,4.2491,4.2561,4.2602,4.2683,4.2748,4.2806,4.2825,4.2795,4.2793,4.2814,4.2818,4.2815,4.2815,4.2549,4.2787,4.2785,4.2783,4.2782,4.2782,4.2319,4.2379,4.2415,4.248,4.251,4.2549,4.2606,4.2617,4.2676,4.274,4.273,4.2808,4.2844,4.2918,4.2943,4.3003,4.2971,4.3002,4.301,4.3017,4.3024,4.2807,4.3014,4.3013,4.3013,4.3012,4.3012,0,4.2528,4.2548,4.2609,4.2667,4.2718,4.2685,4.2729,4.2774,4.2843,4.2879,4.2931,4.3011,4.3074,4.3091,4.3151,4.3196,4.3184,4.3212,4.3208,4.3212,4.3051,4.3025,4.3222,4.3221,4.3221,4.3221,4.3221,4.3221,4.2642,4.2741,4.2741,4.2854,4.2873,4.295,4.2977,4.3012,4.3041,4.3131,4.3183,4.3194,4.3222,4.3283,4.3339,4.3342,4.3365,4.3399,4.3397,4.3245,4.3224,4.3204,4.318,4.3405,4.3405,4.3552,4.3554,4.3555]},{"header":{"parameterUnit":"m.s-1","parameterCategory":1,"la1":30.2991,"la2":30.254,"lo1":-89.0895,"lo2":-89.0444,"dy":0.0017,"dx":0.0017,"nx":28,"ny":28,"refTime":"2023-08-12T21:00:00:Z","depth":0,"parameterNumber":3,"parameterNumberName":"V-component_of_WINDS"},"data":[0,0,0,0,0,0,0,0,0,0,0,0,0,0,0,0,0,0,0,0,0,0,0,0,0,0,0,0,0,0,0,0,0,0,0,0,0,0,0,0,0,0,0,0,0,0,0,0,0,0,0,0,0,0,0,0,0,0,0.9159,0.916,0,0.9227,0.9228,0.9229,0.9236,0.9235,0.9235,0.9234,0.9303,0.9306,0.9308,0,0,0,0,0,0,0,0,0,0,0,0,0,0.9035,0.9037,0.9159,0.916,0.9161,0.9227,0.9228,0.9229,0.9236,0.9235,0.9234,0.9234,0.9302,0.9305,0.9308,0,0,0,0,0,0,0,0,0,0,0,0,0,0.9094,0.9038,0.9159,0.9172,0.9174,0.9227,0.9228,0.9229,0.9236,0.9235,0.9234,0.9233,0.9301,0.9305,0.9309,0.9352,0,0,0.932,0.9322,0,0,0,0,0,0,0,0,0.9091,0.9099,0.917,0.9172,0.9174,0.9222,0.9209,0.927,0.9236,0.9213,0.9234,0.9233,0.9277,0.9283,0.9298,0.9356,0.9359,0.932,0.9323,0.9324,0.9325,0,0,0,0,0,0,0,0.9087,0.9096,0.9186,0.9171,0.9173,0.9175,0.9182,0.9221,0.925,0.9215,0.9215,0.9223,0.9278,0.9294,0.9299,0.936,0.932,0.9324,0.9326,0.9327,0.9456,0.9457,0,0,0,0,0,0,0.908,0.9092,0.9184,0.9188,0.9129,0.9178,0.9186,0.9208,0.9249,0.9255,0.9224,0.9223,0.9288,0.9295,0.9302,0.9355,0.9324,0.9328,0.933,0.9455,0.9456,0.9457,0,0,0,0,0,0,0.9077,0.9088,0.9181,0.914,0.9152,0.9181,0.9205,0.9209,0.9226,0.9257,0.9262,0.9235,0.9288,0.9297,0.934,0.9358,0.9329,0.9333,0.9453,0.9455,0.9457,0.9463,0,0,0,0,0,0,0.9074,0.9087,0.9104,0.9141,0.9154,0.9218,0.9206,0.9211,0.9232,0.9232,0.9268,0.9274,0.9288,0.9334,0.9343,0.9362,0.9336,0.9452,0.9454,0.9456,0.9461,0.9464,0.9467,0,0,0,0,0,0.9069,0.9104,0.9105,0.9116,0.9177,0.9219,0.9227,0.9242,0.9233,0.9251,0.927,0.9272,0.9354,0.9338,0.9349,0.9369,0.9451,0.9453,0.9456,0.946,0.9464,0.9467,0,0,0,0,0,0,0.9069,0.9109,0.9111,0.9158,0.9185,0.922,0.9243,0.9246,0.9277,0.9275,0.9293,0.9301,0.9343,0.9361,0.9342,0.9413,0.9401,0.9406,0.9401,0.9405,0.9408,0.9403,0.9339,0,0,0,0,0,0.9074,0.9106,0.9139,0.9177,0.919,0.9214,0.9233,0.9243,0.9271,0.9283,0.9306,0.9333,0.9365,0.9386,0.9417,0.9463,0.9471,0.9482,0.9486,0.9488,0.9492,0.9517,0.9522,0.9466,0.9466,0.9466,0,0,0.9086,0.9111,0.913,0.9178,0.92,0.9231,0.9224,0.9258,0.9281,0.9288,0.933,0.9348,0.9379,0.9424,0.9445,0.944,0.9509,0.9491,0.9493,0.9496,0.952,0.9526,0.953,0.9468,0.9467,0.9467,0,0,0.9123,0.9146,0.918,0.9202,0.9235,0.9251,0.9259,0.9293,0.9305,0.9347,0.9353,0.9381,0.9435,0.9458,0.9476,0.952,0.9523,0.953,0.9546,0.9571,0.9575,0.9579,0.9594,0.96,0.9534,0.9534,0.9534,0,0.9133,0.9182,0.9197,0.9231,0.9251,0.9258,0.9292,0.9313,0.9355,0.9368,0.9362,0.943,0.9452,0.9501,0.9512,0.9527,0.9536,0.9526,0.9573,0.9577,0.9581,0.9596,0.9602,0.9534,0.9534,0.9534,0.9534,0,0.9192,0.9225,0.9249,0.9289,0.9312,0.9346,0.9365,0.9387,0.9394,0.9409,0.9452,0.9478,0.9514,0.9527,0.9534,0.9577,0.9573,0.957,0.9558,0.9587,0.9601,0.9607,0.9535,0.9535,0.9535,0.9534,0,0,0.9232,0.9279,0.9288,0.9305,0.9342,0.9368,0.9402,0.9437,0.9454,0.9482,0.9511,0.9556,0.9553,0.9574,0.9584,0.9605,0.9637,0.9599,0.96,0.9605,0.9686,0.9688,0.9694,0.9639,0.964,0.9641,0.9683,0,0.9274,0.9334,0.9348,0.94,0.9431,0.9437,0.9466,0.9491,0.9507,0.9534,0.9551,0.9583,0.9577,0.9589,0.961,0.9629,0.9654,0.9626,0.9665,0.9667,0.9658,0.9702,0.9705,0.9743,0.9689,0.969,0.969,0,0.933,0.9359,0.9414,0.9446,0.9459,0.9485,0.9518,0.9545,0.9573,0.9583,0.9605,0.9613,0.9647,0.9633,0.9681,0.9662,0.9678,0.969,0.9692,0.9696,0.968,0.9708,0.9756,0.9761,0.9699,0.9699,0.9698,0,0.9354,0.9406,0.9446,0.9461,0.9499,0.9517,0.9534,0.9561,0.9581,0.9609,0.9622,0.9654,0.9672,0.9696,0.9712,0.97,0.9758,0.9746,0.9767,0.9766,0.9779,0.9778,0.983,0.9789,0.9789,0.9789,0.9789,0,0.9399,0.9432,0.9457,0.9481,0.9518,0.9533,0.9569,0.9586,0.961,0.9637,0.9645,0.967,0.9689,0.9716,0.9728,0.9766,0.9773,0.9782,0.9785,0.9781,0.978,0.9793,0.9791,0.9791,0.979,0.979,0.979,0,0.9431,0.9449,0.9493,0.9525,0.9534,0.9559,0.9587,0.961,0.9625,0.9659,0.9668,0.9692,0.9724,0.9742,0.9783,0.9791,0.9833,0.9834,0.9823,0.9825,0.9844,0.9842,0.9907,0.9916,0.9869,0.9869,0.987,0,0.9459,0.9484,0.9519,0.9538,0.9555,0.9585,0.9605,0.9621,0.9641,0.9675,0.9694,0.9727,0.9754,0.9806,0.9827,0.9858,0.986,0.9881,0.9865,0.986,0.986,0.9859,0.9861,0.9883,0.9884,0.9884,0.9884,0,0.9506,0.9513,0.9542,0.9574,0.9597,0.9623,0.9649,0.9663,0.9683,0.9706,0.9739,0.976,0.9802,0.9835,0.9867,0.9884,0.9887,0.9889,0.9896,0.9892,0.9885,0.9889,0.9831,0.9888,0.9887,0.9887,0.9887,0.9887,0.9537,0.9559,0.9587,0.9619,0.9639,0.9663,0.9686,0.9703,0.9732,0.9767,0.9774,0.9809,0.9836,0.988,0.9897,0.9925,0.9921,0.993,0.9933,0.9935,0.9935,0.988,0.9931,0.9931,0.9931,0.9931,0.9931,0,0.9584,0.9601,0.963,0.9665,0.969,0.9691,0.9719,0.9739,0.977,0.9795,0.9821,0.9859,0.989,0.9913,0.9945,0.9962,0.9965,0.997,0.9969,0.9973,0.9937,0.9929,0.9968,0.9968,0.9967,0.9967,0.9967,0.9967,0.9611,0.9649,0.966,0.9708,0.9725,0.976,0.9776,0.9797,0.9817,0.9859,0.9885,0.9899,0.9923,0.9956,0.9984,0.999,1.0001,1.0007,1.0012,0.9979,0.9975,0.9971,0.9963,1.0009,1.0009,1.0045,1.0046,1.0046]}]]